This is the latest recevied weather packets stored in our database for station/object N7WGJ. If no packets are shown the sender has not sent any weather packets the latest 10 day(s).
| Time | Temp. | Humidity | Pressure | Rain* | Wind** | Luminosity | Snow |
|---|---|---|---|---|---|---|---|
| 1788228700 | 21.11° C | 64% | 1008.6 hPa | 0 mm | - | - | - |
| 1788228100 | 21.11° C | 64% | 1008.6 hPa | 0 mm | - | - | - |
| 1788227492 | 21.11° C | 62% | 1008.7 hPa | 0 mm | - | - | - |
| 1788226296 | 21.67° C | 59% | 1008.7 hPa | 0 mm | - | - | - |
| 1788225697 | 21.67° C | 57% | 1008.8 hPa | 0 mm | - | - | - |
| 1788225099 | 22.22° C | 57% | 1008.7 hPa | 0 mm | - | - | - |
| 1788224506 | 22.78° C | 56% | 1008.8 hPa | 0 mm | - | - | - |
| 1788223895 | 22.78° C | 55% | 1008.7 hPa | 0 mm | - | - | - |
| 1788223300 | 22.78° C | 57% | 1008.8 hPa | 0 mm | - | - | - |
| 1788222100 | 22.22° C | 58% | 1009 hPa | 0 mm | - | - | - |
| 1788221501 | 22.78° C | 57% | 1009.2 hPa | 0 mm | - | - | - |
| 1788220901 | 22.78° C | 57% | 1009.2 hPa | 0 mm | - | - | - |
| 1788220294 | 23.33° C | 57% | 1009.1 hPa | 0 mm | - | - | - |
| 1788219692 | 23.33° C | 56% | 1009.3 hPa | 0 mm | - | - | - |
| 1788219096 | 23.33° C | 57% | 1009.3 hPa | 0 mm | - | - | - |
| 1788218497 | 23.33° C | 57% | 1009.4 hPa | 0 mm | - | - | - |
| 1788217897 | 23.33° C | 57% | 1009.5 hPa | 0 mm | - | - | - |
| 1788217294 | 23.33° C | 58% | 1009.6 hPa | 0 mm | - | - | - |
| 1788216687 | 23.33° C | 57% | 1009.6 hPa | 0 mm | - | - | - |
| 1788216087 | 23.33° C | 57% | 1009.7 hPa | 0 mm | - | - | - |
| 1788215488 | 22.78° C | 59% | 1009.9 hPa | 0 mm | - | - | - |
| 1788214889 | 22.78° C | 58% | 1010 hPa | 0 mm | - | - | - |
| 1788214285 | 22.78° C | 57% | 1010.2 hPa | 0 mm | - | - | - |
| 1788213706 | 22.78° C | 57% | 1010.2 hPa | 0 mm | - | - | - |
| 1788213096 | 22.78° C | 59% | 1010.4 hPa | 0 mm | - | - | - |
* Rain latest hour (hover to see other rain measurements)
** Current wind speed in m/s (hover to see current wind gust speed)